Location: Fort Worth, Tx
(32.7431°N, 97.3695°W)
Time: 00:00:24
(UTC-04:00)

A-11 Canister half - Pass Details

Date: 27 February 2024
Orbit: 1525 x 1683 km, 47.3° (Epoch: 24 April)

Event Time Altitude Azimuth Distance (km) Brightness Sun altitude
Rises 20:23:00 0° 223° (SW) 4,831 12.3 -13.0°
Reaches altitude 10° 20:26:09 10° 221° (SW) 3,825 11.7 -13.7°
Maximum altitude 20:35:49 75° 138° (SE) 1,622 9.0 -15.7°
Enters shadow 20:44:03 15° 56° (NE) 3,359 10.3 -17.4°
